This is the latest recevied weather packets stored in our database for station/object EA1BQO-1. If no packets are shown the sender has not sent any weather packets the latest 10 day(s).
| Time | Temp. | Humidity | Pressure | Rain* | Wind** | Luminosity | Snow |
|---|---|---|---|---|---|---|---|
| 1778098743 | 11.67° C | 67% | 1008.2 hPa | 0 mm | - | - | - |
| 1778098143 | 12.22° C | 66% | 1008.1 hPa | 0 mm | - | - | - |
| 1778097543 | 12.22° C | 65% | 1008 hPa | 0 mm | - | - | - |
| 1778096943 | 12.22° C | 64% | 1008 hPa | 0 mm | - | - | - |
| 1778096343 | 12.78° C | 62% | 1007.9 hPa | 0 mm | - | - | - |
| 1778095743 | 12.78° C | 60% | 1007.8 hPa | 0 mm | - | - | - |
| 1778095143 | 13.33° C | 57% | 1007.7 hPa | 0 mm | - | - | - |
| 1778094543 | 13.89° C | 54% | 1007.8 hPa | 0 mm | - | - | - |
| 1778093943 | 14.44° C | 50% | 1007.7 hPa | 0 mm | - | - | - |
| 1778093343 | 14.44° C | 48% | 1007.6 hPa | 0 mm | - | - | - |
| 1778092743 | 13.89° C | 46% | 1007.6 hPa | 0 mm | - | - | - |
| 1778092143 | 13.89° C | 49% | 1007.7 hPa | 0 mm | - | - | - |
| 1778091543 | 14.44° C | 47% | 1007.7 hPa | 0 mm | - | - | - |
| 1778090943 | 14.44° C | 46% | 1007.6 hPa | 0 mm | - | - | - |
| 1778090343 | 15° C | 44% | 1007.6 hPa | 0 mm | - | - | - |
| 1778089743 | 15° C | 42% | 1007.6 hPa | 0 mm | - | - | - |
| 1778089143 | 15° C | 41% | 1007.8 hPa | 0 mm | - | - | - |
| 1778088543 | 15° C | 42% | 1007.8 hPa | 0 mm | - | - | - |
| 1778087943 | 15.56° C | 41% | 1007.8 hPa | 0 mm | - | - | - |
| 1778087343 | 16.67° C | 38% | 1007.8 hPa | 0 mm | - | - | - |
| 1778086743 | 16.67° C | 33% | 1007.7 hPa | 0 mm | - | - | - |
| 1778086143 | 17.22° C | 33% | 1007.5 hPa | 0 mm | - | - | - |
| 1778085543 | 17.22° C | 31% | 1007.7 hPa | 0 mm | - | - | - |
| 1778084943 | 16.67° C | 30% | 1007.6 hPa | 0 mm | - | - | - |
| 1778084343 | 17.22° C | 31% | 1007.6 hPa | 0 mm | - | - | - |
* Rain latest hour (hover to see other rain measurements)
** Current wind speed in m/s (hover to see current wind gust speed)